Location: Napoli
(40.8639°N, 14.2562°E)
Time: 01:57:50
(UTC+02:00)

ISS - Pass Details

Date: 10 October 2017
Orbit: 401 x 408 km, 51.6° (Epoch: 19 October)

Event Time Altitude Azimuth Distance (km) Brightness Sun altitude
Rises 21:07:20 0° 304° (NW) 2,328 1.1 -30.2°
Reaches altitude 10° 21:09:25 10° 302° (WNW) 1,466 -0.2 -30.6°
Enters shadow 21:09:44 12° 302° (WNW) 1,340 -0.4 -30.6°
